DECAYED

STARLINK-2030, 47647 (Decayed)

Orbit data source: Space-Track

STARLINK-2030, 47647 was a payload satellite owned by SpaceX/Seattle (US) in LEO that was launched on Tue, 16 Feb 2021 UTC via an FALCON 9 launch vehicle from the Air Force Eastern Test Range (AFETR). Payload-class satellites include a variety of spacecraft equipped with specific instruments for various scientific and technological missions. These include communications satellites like Starlink; space stations such as the ISS; scientific satellites like the Hubble; Earth observation satellites from companies like Planet Labs, Umbra, and HawkEye 360; GPS; miniature CubeSats for education and research; and military/defense satellites.

Not visible in the next 10 days
Identifier
47647, 2021-012AD
Orbit
Decayed
Country
Flag of USUS
Related business
Manufacturer
SpaceX/Seattle
Mission
Decayed Commercial Communications
Bus & Motor
STARLINK, Unknown motor
Mass
260 kg wet, ~248 kg dry
Launch date (UTC)
2021-02-16 (5 years ago)
Launch vehicle
FALCON 9
Launch site
Air Force Eastern Test Range (AFETR)
Object type
Payload
Rocket body
Debris
Shape & HBR
Box + 1 Pan, 10.1 m
Radar Cross Section
13.562 m², Large (>1 m²)

Expand to show TLE details & history
Last TLE update: 1 year ago

TLE from 1 year ago
0 STARLINK-2030
1 47647U 21012AD  25184.72482778  .12528965  12416-4  27888-3 0  9991
2 47647  53.0232  73.3530 0012024 240.0020 229.8688 16.45543286242446
Epoch: 2025-07-03T17:23Z
TLE epoch observation values (Epoch: 2025-07-03T17:23:45.120Z)
Latitude
48.90203°
Longitude
11.31488°
Altitude
161.672 km
Speed
7.812 km/s
True Right ascension
12h 56m 57s
True Declination
48° 42' 58"
Sunlit
Object was in daylight at epoch
Visualization orbit readout
Latitude
Unknown
Longitude
Unknown
Altitude
Unknown
Speed
Unknown
Apparent Right ascension
Unknown
Apparent Declination
Unknown
Sunlit
N/A
Visualization observer readout
Local Sidereal Time
21:40:52
Azimuth
Unknown
Elevation
Unknown
Doppler factor
Unknown
Orbital elements
Apogee altitude
159.241 km
Perigee altitude
143.539 km
Semi-major axis
6,529.527 km
Eccentricity
0.0012
Inclination
53.0232°
RAAN
73.353°
Arg. of periapsis
240.002°
True anomaly
229.76356°
Mean anomaly
229.8688°
Eccentric anomaly
229.81617°
Mean motion
4.11359 °/min
Orbital period
87.51 mins
BSTAR
0.00027888
Loading maneuver chart data...
Computing Atmospheric mass density...

Documentation

Showing up to 5 results
|